Weather History for Middletown, OH

Change the Weather History Date:

Friday, June 15, 2012

  Actual Average (KDAY) Record (KDAY)
Temperature  
Mean Temperature 70 °F 71 °F  
Max Temperature 87 °F 80 °F 96 °F (1994)
Min Temperature 53 °F 61 °F 47 °F (1933)
Degree Days  
Heating Degree Days 0 1  
Month to date heating degree days 21  
Since 1 June heating degree days 21  
Since 1 July heating degree days 5641  
Cooling Degree Days 5 6  
Month to date cooling degree days 74  
Year to date cooling degree days 144  
Since 1 June cooling degree days 74  
Growing Degree Days 20 (Base 50)    
Moisture  
Dew Point 60 °F    
Average Humidity 70    
Maximum Humidity 100    
Minimum Humidity 40    
Precipitation  
Precipitation 0.00 in 0.14 in 1.26 in (1949)
Month to date precipitation 2.10  
Year to date precipitation 19.14  
Snow  
Snow 0.00 in 0.00 in 0.00 in ()
Month to date snowfall 0.0  
Since 1 June snowfall 0.0  
Since 1 July snowfall 23.3  
Snow Depth -    
Sea Level Pressure  
Sea Level Pressure 30.13 in    
Wind  
Wind Speed 3 mph (ESE)    
Max Wind Speed 10 mph    
Max Gust Speed -    
Visibility 10 miles    
Events Rain    
T = Trace of Precipitation, MM = Missing Value Source: NWS Daily Summary

Daily Weather History Graph

Daily Weather History Graph

Search for Another Location

Airport:

Trip Planner

Search our weather history database for the weather conditions in past years. The results will help you decide how hot, cold, wet, or windy it might be!

Date:

Astronomy

Jun. 15, 2012 Rise Set
Actual Time 6:09 AM EDT 9:06 PM EDT
Civil Twilight 5:37 AM EDT 9:39 PM EDT
Nautical Twilight 4:56 AM EDT 10:20 PM EDT
Astronomical Twilight 4:08 AM EDT 11:08 PM EDT
Moon 3:22 AM EDT (6/15) 5:46 PM EDT (6/15)
Length of Visible Light 16h 02m
Length of Day
14h 57m
Waning Crescent, 14% of the Moon is Illuminated
Jun 15
Waning Crescent
Jun 19
New
Jun 26
First Quarter
Jul 3
Full
Jul 10
Last Quarter

Hourly Weather History & Observations

Time (EDT) Temp. Heat Index Dew Point Humidity Pressure Visibility Wind Dir Wind Speed Gust Speed Precip Events Conditions
12:15 AM 59.0 °F - 55.4 °F 88% 30.11 in 10.0 mi Calm Calm - N/A   Clear
12:35 AM 57.2 °F - 55.4 °F 94% 30.11 in 10.0 mi Calm Calm - N/A   Clear
12:55 AM 57.2 °F - 55.4 °F 94% 30.11 in 10.0 mi NNE 3.5 mph - N/A   Clear
1:15 AM 57.2 °F - 55.4 °F 94% 30.11 in 10.0 mi Calm Calm - N/A   Clear
1:35 AM 57.2 °F - 55.4 °F 94% 30.11 in 10.0 mi Calm Calm - N/A   Clear
1:55 AM 53.6 °F - 53.6 °F 100% 30.11 in 10.0 mi North 3.5 mph - N/A   Clear
2:15 AM 57.2 °F - 55.4 °F 94% 30.11 in 10.0 mi NNE 3.5 mph - N/A   Clear
2:35 AM 55.4 °F - 55.4 °F 100% 30.11 in 10.0 mi North 3.5 mph - N/A   Clear
2:55 AM 53.6 °F - 53.6 °F 100% 30.11 in 10.0 mi Calm Calm - N/A   Clear
3:15 AM 53.6 °F - 53.6 °F 100% 30.11 in 10.0 mi Calm Calm - N/A   Clear
3:35 AM 53.6 °F - 53.6 °F 100% 30.11 in 10.0 mi NNE 3.5 mph - N/A   Clear
3:55 AM 53.6 °F - 53.6 °F 100% 30.11 in 10.0 mi Calm Calm - N/A   Clear
4:15 AM 53.6 °F - 53.6 °F 100% 30.11 in 10.0 mi North 3.5 mph - N/A   Clear
4:35 AM 53.6 °F - 53.6 °F 100% 30.09 in 10.0 mi NNE 3.5 mph - N/A   Clear
4:55 AM 53.6 °F - 53.6 °F 100% 30.10 in 10.0 mi Calm Calm - N/A   Clear
5:15 AM 53.6 °F - 53.6 °F 100% 30.10 in 10.0 mi Calm Calm - N/A   Clear
5:35 AM 53.6 °F - 53.6 °F 100% 30.12 in 10.0 mi North 3.5 mph - N/A   Clear
5:55 AM 53.6 °F - 53.6 °F 100% 30.13 in 10.0 mi Calm Calm - N/A   Clear
6:15 AM 53.6 °F - 53.6 °F 100% 30.14 in 10.0 mi NE 3.5 mph - N/A   Clear
6:35 AM 53.6 °F - 53.6 °F 100% 30.14 in 10.0 mi NNE 3.5 mph - N/A   Clear
6:55 AM 53.6 °F - 53.6 °F 100% 30.15 in 10.0 mi Calm Calm - N/A   Clear
7:15 AM 57.2 °F - 55.4 °F 94% 30.16 in 10.0 mi Calm Calm - N/A   Clear
7:35 AM 59.0 °F - 57.2 °F 94% 30.16 in 10.0 mi Calm Calm - N/A   Clear
7:55 AM 59.0 °F - 57.2 °F 94% 30.17 in 10.0 mi Calm Calm - N/A   Clear
8:15 AM 62.6 °F - 59.0 °F 88% 30.17 in 10.0 mi NE 3.5 mph - N/A   Clear
8:35 AM 68.0 °F - 60.8 °F 78% 30.17 in 10.0 mi NE 4.6 mph - N/A   Clear
8:55 AM 68.0 °F - 59.0 °F 73% 30.17 in 10.0 mi Calm Calm - N/A   Clear
9:15 AM 68.0 °F - 60.8 °F 78% 30.17 in 10.0 mi Calm Calm - N/A   Clear
9:35 AM 71.6 °F - 62.6 °F 73% 30.17 in 10.0 mi SE 5.8 mph - N/A Rain Light Rain
9:55 AM 71.6 °F - 62.6 °F 73% 30.17 in 10.0 mi SSE 4.6 mph - N/A   Clear
10:15 AM 71.6 °F - 60.8 °F 69% 30.17 in 10.0 mi Calm Calm - N/A   Clear
10:35 AM 73.4 °F - 62.6 °F 69% 30.15 in 10.0 mi SSW 4.6 mph - N/A   Clear
10:55 AM 73.4 °F - 62.6 °F 69% 30.15 in 10.0 mi SW 3.5 mph - N/A   Clear
11:15 AM 77.0 °F - 64.4 °F 65% 30.16 in 10.0 mi Calm Calm - N/A   Clear
11:35 AM 78.8 °F - 64.4 °F 61% 30.15 in 10.0 mi West 4.6 mph - N/A   Clear
11:55 AM 78.8 °F - 64.4 °F 61% 30.15 in 10.0 mi NNE 3.5 mph - N/A   Clear
12:15 PM 78.8 °F - 64.4 °F 61% 30.14 in 10.0 mi West 3.5 mph - N/A   Clear
12:35 PM 80.6 °F 82.3 °F 64.4 °F 58% 30.14 in 10.0 mi NE 3.5 mph - N/A   Clear
12:55 PM 80.6 °F 82.3 °F 64.4 °F 58% 30.14 in 10.0 mi NE 4.6 mph - N/A   Clear
1:15 PM 84.2 °F 85.6 °F 64.4 °F 51% 30.13 in 10.0 mi SSE 3.5 mph - N/A   Clear
1:35 PM 84.2 °F 85.0 °F 62.6 °F 48% 30.13 in 10.0 mi Calm Calm - N/A   Clear
1:55 PM 87.8 °F 88.5 °F 62.6 °F 43% 30.13 in 10.0 mi East 6.9 mph - N/A   Clear
2:15 PM 87.8 °F 87.6 °F 60.8 °F 40% 30.13 in 10.0 mi South 8.1 mph - N/A   Clear
2:35 PM 87.8 °F 88.5 °F 62.6 °F 43% 30.12 in 10.0 mi Calm Calm - N/A   Clear
2:55 PM 87.8 °F 88.5 °F 62.6 °F 43% 30.12 in 10.0 mi SSE 4.6 mph - N/A   Clear
3:15 PM 87.8 °F 87.6 °F 60.8 °F 40% 30.12 in 10.0 mi Calm Calm - N/A   Clear
3:35 PM 87.8 °F 88.5 °F 62.6 °F 43% 30.12 in 10.0 mi ESE 6.9 mph - N/A   Clear
3:55 PM 87.8 °F 88.5 °F 62.6 °F 43% 30.11 in 10.0 mi SE 3.5 mph - N/A   Clear
4:15 PM 87.8 °F 88.5 °F 62.6 °F 43% 30.11 in 10.0 mi SSE 5.8 mph - N/A   Clear
4:35 PM 87.8 °F 88.5 °F 62.6 °F 43% 30.11 in 10.0 mi SSW 10.4 mph - N/A   Clear
4:55 PM 87.8 °F 88.5 °F 62.6 °F 43% 30.10 in 10.0 mi SSW 3.5 mph - N/A   Clear
5:15 PM 87.8 °F 87.6 °F 60.8 °F 40% 30.11 in 10.0 mi South 4.6 mph - N/A   Clear
5:35 PM 87.8 °F 87.6 °F 60.8 °F 40% 30.11 in 10.0 mi SE 4.6 mph - N/A   Clear
5:55 PM 87.8 °F 87.6 °F 60.8 °F 40% 30.11 in 10.0 mi ESE 8.1 mph - N/A   Clear
6:15 PM 87.8 °F 87.6 °F 60.8 °F 40% 30.11 in 10.0 mi South 6.9 mph - N/A   Clear
6:35 PM 87.8 °F 87.6 °F 60.8 °F 40% 30.11 in 10.0 mi South 5.8 mph - N/A   Clear
6:55 PM 87.8 °F 87.6 °F 60.8 °F 40% 30.10 in 10.0 mi ESE 5.8 mph - N/A   Clear
7:15 PM 87.8 °F 87.6 °F 60.8 °F 40% 30.10 in 10.0 mi ESE 8.1 mph - N/A   Clear
7:35 PM 87.8 °F 88.5 °F 62.6 °F 43% 30.11 in 10.0 mi SE 5.8 mph - N/A   Clear
7:55 PM 87.8 °F 88.5 °F 62.6 °F 43% 30.11 in 10.0 mi SE 4.6 mph - N/A   Clear
8:15 PM 86.0 °F 86.6 °F 62.6 °F 45% 30.11 in 10.0 mi SE 4.6 mph - N/A   Clear
8:35 PM 82.4 °F 83.4 °F 62.6 °F 51% 30.11 in 10.0 mi SE 4.6 mph - N/A   Clear
8:55 PM 82.4 °F 82.9 °F 60.8 °F 48% 30.11 in 10.0 mi SE 3.5 mph - N/A   Clear
9:15 PM 77.0 °F - 64.4 °F 65% 30.11 in 10.0 mi ESE 6.9 mph - N/A   Clear
9:35 PM 78.8 °F - 66.2 °F 65% 30.11 in 10.0 mi ESE 5.8 mph - N/A   Light Drizzle
9:55 PM 78.8 °F - 66.2 °F 65% 30.12 in 10.0 mi SE 5.8 mph - N/A   Clear
10:15 PM 78.8 °F - 66.2 °F 65% 30.12 in 10.0 mi ESE 4.6 mph - N/A   Clear
10:35 PM 78.8 °F - 66.2 °F 65% 30.12 in 10.0 mi ESE 4.6 mph - N/A   Clear
10:55 PM 77.0 °F - 66.2 °F 69% 30.13 in 10.0 mi ESE 4.6 mph - N/A   Scattered Clouds
11:15 PM 77.0 °F - 66.2 °F 69% 30.13 in 10.0 mi SE 4.6 mph - N/A   Clear
11:35 PM 77.0 °F - 68.0 °F 74% 30.13 in 10.0 mi SE 4.6 mph - N/A   Clear
11:55 PM 77.0 °F - 68.0 °F 74% 30.14 in 10.0 mi SE 5.8 mph - N/A   Clear